Weather History for Chicago Midway, IL

Change the Weather History Date:

Saturday, July 26, 2014

  Actual Average Record
Temperature  
Mean Temperature 78 °F 76 °F  
Max Temperature 85 °F 84 °F 102 °F (1936)
Min Temperature 70 °F 68 °F 53 °F (1962)
Degree Days  
Heating Degree Days 0 0  
Month to date heating degree days 1 0  
Since 1 June heating degree days 3 31  
Since 1 July heating degree days 1 0  
Cooling Degree Days 13 11  
Month to date cooling degree days 202 284  
Year to date cooling degree days 564 568  
Since 1 June cooling degree days 453 494  
Growing Degree Days 26 (Base 50)    
Moisture  
Dew Point 67 °F    
Average Humidity 70    
Maximum Humidity 87    
Minimum Humidity 59    
Precipitation  
Precipitation 0.00 in 0.14 in 1.77 in (1932)
Month to date precipitation 5.14 3.30  
Year to date precipitation 24.15 21.85  
Sea Level Pressure  
Sea Level Pressure 29.81 in    
Wind  
Wind Speed 8 mph (SW)    
Max Wind Speed 15 mph    
Max Gust Speed 19 mph    
Visibility 10 miles    
Events      
T = Trace of Precipitation, MM = Missing Value Source: NWS Daily Summary

Daily Weather History Graph

Daily Weather History Graph

Search for Another Location

Airport:

Trip Planner

Search our weather history database for the weather conditions in past years. The results will help you decide how hot, cold, wet, or windy it might be!

Date:

Astronomy

Jul. 26, 2014 Rise Set
Actual Time 5:39 AM CDT 8:15 PM CDT
Civil Twilight 5:07 AM CDT 8:47 PM CDT
Nautical Twilight 4:27 AM CDT 9:27 PM CDT
Astronomical Twilight 3:41 AM CDT 10:12 PM CDT
Moon 5:32 AM CDT (7/26) 7:48 PM CDT (7/26)
Length of Visible Light 15h 40m
Length of Day
14h 36m
Waning Crescent, 0% of the Moon is Illuminated
Jul 26
Waning Crescent
Jul 26
New
Aug 3
First Quarter
Aug 10
Full
Aug 17
Last Quarter

Hourly Weather History & Observations

Time (CDT) Temp. Heat Index Dew Point Humidity Pressure Visibility Wind Dir Wind Speed Gust Speed Precip Events Conditions
12:51 AM 72.0 °F - 60.1 °F 66% 29.89 in 10.0 mi SSW 8.1 mph - N/A   Overcast
1:51 AM 71.1 °F - 60.1 °F 68% 29.87 in 10.0 mi SSW 9.2 mph 19.6 mph N/A   Overcast
2:51 AM 71.1 °F - 60.1 °F 68% 29.85 in 10.0 mi SSW 9.2 mph - N/A   Overcast
3:51 AM 70.0 °F - 60.1 °F 71% 29.84 in 10.0 mi SSW 11.5 mph - N/A   Overcast
4:51 AM 71.1 °F - 61.0 °F 70% 29.83 in 10.0 mi SW 6.9 mph - N/A   Overcast
5:51 AM 71.1 °F - 61.0 °F 70% 29.83 in 10.0 mi SSW 8.1 mph - N/A   Overcast
6:51 AM 71.1 °F - 62.1 °F 73% 29.83 in 10.0 mi SSW 8.1 mph - N/A   Overcast
7:51 AM 72.0 °F - 63.0 °F 73% 29.83 in 10.0 mi SSW 8.1 mph - N/A   Overcast
8:51 AM 73.0 °F - 64.0 °F 73% 29.82 in 10.0 mi SSW 6.9 mph - N/A   Overcast
12:41 PM 82.4 °F 86.3 °F 69.8 °F 66% 29.82 in 10.0 mi Calm Calm - N/A   Mostly Cloudy
1:51 PM 82.0 °F 84.5 °F 66.9 °F 60% 29.77 in 10.0 mi SE 9.2 mph - N/A   Mostly Cloudy
2:51 PM 82.9 °F 87.0 °F 70.0 °F 65% 29.77 in 10.0 mi WSW 8.1 mph - N/A   Mostly Cloudy
3:37 PM 82.9 °F 87.0 °F 70.0 °F 65% 29.82 in 9.0 mi NW 9.2 mph - N/A   Overcast
3:51 PM 82.9 °F 87.5 °F 71.1 °F 67% 29.78 in 9.0 mi West 5.8 mph - N/A   Overcast
4:27 PM 82.9 °F 87.0 °F 70.0 °F 65% 29.80 in 10.0 mi West 8.1 mph - N/A   Overcast
4:51 PM 82.0 °F 86.3 °F 71.1 °F 69% 29.80 in 10.0 mi WSW 11.5 mph - N/A   Overcast
5:51 PM 82.9 °F 88.0 °F 72.0 °F 69% 29.80 in 10.0 mi WSW 13.8 mph - N/A   Overcast
6:20 PM 82.0 °F 86.7 °F 72.0 °F 71% 29.84 in 10.0 mi SW 10.4 mph - N/A   Overcast
6:51 PM 81.0 °F 85.2 °F 72.0 °F 74% 29.79 in 10.0 mi WSW 9.2 mph - N/A   Mostly Cloudy
7:51 PM 80.1 °F 83.8 °F 72.0 °F 76% 29.77 in 10.0 mi SW 9.2 mph - N/A   Mostly Cloudy
8:51 PM 79.0 °F - 72.0 °F 79% 29.78 in 10.0 mi WSW 6.9 mph - N/A   Mostly Cloudy
9:51 PM 78.1 °F - 72.0 °F 81% 29.78 in 10.0 mi WSW 5.8 mph - N/A   Mostly Cloudy
10:51 PM 78.8 °F - 71.6 °F 78% 29.82 in 8.0 mi West 5.8 mph - N/A   Mostly Cloudy
11:51 PM 75.9 °F - 72.0 °F 87% 29.81 in 7.0 mi WSW 8.1 mph - N/A   Mostly Cloudy